Time,TemperatureF,DewpointF,PressureIn,WindDirection,WindDirectionDegrees,WindSpeedMPH,WindSpeedGustMPH,Humidity,HourlyPrecipIn,Conditions,Clouds,dailyrainin,SolarRadiationWatts/m^2,SoftwareType,DateUTC
2013-06-12 00:02:00,57.6,39.0,31.33,NNE,31,0.0,4.0,50,0.00,,,0.00,0,weatherlink.com 1.10,2013-06-12 06:02:00,
2013-06-12 00:17:00,56.9,39.0,31.33,NNE,22,0.0,4.0,51,0.00,,,0.00,0,weatherlink.com 1.10,2013-06-12 06:17:00,
2013-06-12 00:32:00,56.7,39.0,31.34,NNE,22,0.0,2.0,51,0.00,,,0.00,0,weatherlink.com 1.10,2013-06-12 06:32:00,
2013-06-12 00:47:00,56.5,39.0,31.34,NNE,17,0.0,3.0,52,0.00,,,0.00,0,weatherlink.com 1.10,2013-06-12 06:47:00,
2013-06-12 01:02:00,56.3,39.0,31.34,NNE,13,0.0,2.0,53,0.00,,,0.00,0,weatherlink.com 1.10,2013-06-12 07:02:00,
2013-06-12 01:17:00,56.5,39.0,31.34,NNE,13,1.0,2.0,53,0.00,,,0.00,0,weatherlink.com 1.10,2013-06-12 07:17:00,
2013-06-12 01:32:00,55.6,39.0,31.34,NNE,13,1.0,3.0,54,0.00,,,0.00,0,weatherlink.com 1.10,2013-06-12 07:32:00,
2013-06-12 01:47:00,54.7,39.0,31.34,NNE,20,0.0,5.0,56,0.00,,,0.00,0,weatherlink.com 1.10,2013-06-12 07:47:00,
2013-06-12 02:02:00,54.6,39.0,31.34,NNE,28,2.0,3.0,56,0.00,,,0.00,0,weatherlink.com 1.10,2013-06-12 08:02:00,
2013-06-12 02:17:00,54.9,39.0,31.34,NNE,18,1.0,3.0,55,0.00,,,0.00,0,weatherlink.com 1.10,2013-06-12 08:17:00,
2013-06-12 02:33:00,55.7,39.0,31.34,NNE,22,2.0,5.0,54,0.00,,,0.00,0,weatherlink.com 1.10,2013-06-12 08:33:00,
2013-06-12 02:48:00,55.5,39.0,31.34,NNE,18,4.0,6.0,54,0.00,,,0.00,0,weatherlink.com 1.10,2013-06-12 08:48:00,
2013-06-12 03:03:00,55.3,39.0,31.34,NNW,347,3.0,5.0,55,0.00,,,0.00,0,weatherlink.com 1.10,2013-06-12 09:03:00,
2013-06-12 03:18:00,52.8,39.0,31.34,NNE,13,3.0,4.0,60,0.00,,,0.00,0,weatherlink.com 1.10,2013-06-12 09:18:00,
2013-06-12 03:33:00,54.5,39.0,31.34,North,355,8.0,9.0,57,0.00,,,0.00,0,weatherlink.com 1.10,2013-06-12 09:33:00,
2013-06-12 03:48:00,54.8,40.0,31.34,North,355,5.0,8.0,57,0.00,,,0.00,0,weatherlink.com 1.10,2013-06-12 09:48:00,
2013-06-12 04:03:00,54.5,39.0,31.33,NNE,32,3.0,12.0,57,0.00,,,0.00,0,weatherlink.com 1.10,2013-06-12 10:03:00,
2013-06-12 04:18:00,54.5,39.0,31.33,North,5,7.0,11.0,57,0.00,,,0.00,0,weatherlink.com 1.10,2013-06-12 10:18:00,
2013-06-12 04:33:00,54.0,40.0,31.33,NE,34,9.0,10.0,59,0.00,,,0.00,0,weatherlink.com 1.10,2013-06-12 10:33:00,
2013-06-12 04:48:00,53.3,40.0,31.33,NE,49,4.0,10.0,61,0.00,,,0.00,0,weatherlink.com 1.10,2013-06-12 10:48:00,
2013-06-12 05:03:00,52.9,40.0,31.32,NNE,28,0.0,7.0,61,0.00,,,0.00,0,weatherlink.com 1.10,2013-06-12 11:03:00,
2013-06-12 05:18:00,52.0,40.0,31.33,North,9,0.0,4.0,63,0.00,,,0.00,0,weatherlink.com 1.10,2013-06-12 11:18:00,
2013-06-12 05:33:00,50.6,40.0,31.34,NNE,28,3.0,6.0,67,0.00,,,0.00,0,weatherlink.com 1.10,2013-06-12 11:33:00,
2013-06-12 05:48:00,51.2,40.0,31.34,NE,37,3.0,8.0,66,0.00,,,0.00,5,weatherlink.com 1.10,2013-06-12 11:48:00,
2013-06-12 06:03:00,51.6,39.0,31.34,NNE,23,4.0,11.0,63,0.00,,,0.00,14,weatherlink.com 1.10,2013-06-12 12:03:00,
2013-06-12 06:18:00,51.6,39.0,31.35,NE,40,6.0,11.0,62,0.00,,,0.00,19,weatherlink.com 1.10,2013-06-12 12:18:00,
2013-06-12 06:33:00,51.8,39.0,31.35,NNE,23,5.0,11.0,61,0.00,,,0.00,25,weatherlink.com 1.10,2013-06-12 12:33:00,
2013-06-12 06:48:00,51.6,39.0,31.36,North,355,7.0,13.0,63,0.00,,,0.00,44,weatherlink.com 1.10,2013-06-12 12:48:00,
2013-06-12 07:03:00,51.5,39.0,31.36,North,360,7.0,14.0,62,0.00,,,0.00,63,weatherlink.com 1.10,2013-06-12 13:03:00,
2013-06-12 07:18:00,51.3,40.0,31.37,NNE,30,4.0,12.0,65,0.00,,,0.00,74,weatherlink.com 1.10,2013-06-12 13:18:00,
2013-06-12 07:33:00,51.3,40.0,31.37,NE,51,4.0,14.0,66,0.00,,,0.00,109,weatherlink.com 1.10,2013-06-12 13:33:00,
2013-06-12 07:48:00,51.0,40.0,31.37,North,9,4.0,15.0,67,0.00,,,0.00,141,weatherlink.com 1.10,2013-06-12 13:48:00,
2013-06-12 08:03:00,51.0,40.0,31.37,NNE,21,6.0,17.0,66,0.00,,,0.00,97,weatherlink.com 1.10,2013-06-12 14:03:00,
2013-06-12 08:18:00,51.0,40.0,31.37,NE,34,6.0,18.0,67,0.00,,,0.00,139,weatherlink.com 1.10,2013-06-12 14:18:00,
2013-06-12 08:33:00,51.0,40.0,31.37,NE,41,5.0,17.0,65,0.00,,,0.00,197,weatherlink.com 1.10,2013-06-12 14:33:00,
2013-06-12 08:48:00,51.0,40.0,31.37,NNE,19,4.0,17.0,66,0.00,,,0.00,221,weatherlink.com 1.10,2013-06-12 14:48:00,
2013-06-12 09:03:00,51.0,40.0,31.37,NNE,17,8.0,15.0,65,0.00,,,0.00,218,weatherlink.com 1.10,2013-06-12 15:03:00,
2013-06-12 09:18:00,50.8,40.0,31.37,NE,53,7.0,17.0,67,0.00,,,0.00,176,weatherlink.com 1.10,2013-06-12 15:18:00,
2013-06-12 09:33:00,50.8,40.0,31.38,NNE,15,13.0,16.0,67,0.00,,,0.00,171,weatherlink.com 1.10,2013-06-12 15:33:00,
2013-06-12 09:49:00,50.5,40.0,31.38,North,9,5.0,18.0,67,0.00,,,0.00,216,weatherlink.com 1.10,2013-06-12 15:49:00,
2013-06-12 10:04:00,50.5,39.0,31.37,North,349,9.0,19.0,66,0.00,,,0.00,229,weatherlink.com 1.10,2013-06-12 16:04:00,
2013-06-12 10:19:00,51.2,40.0,31.38,NNE,20,8.0,16.0,66,0.00,,,0.00,283,weatherlink.com 1.10,2013-06-12 16:19:00,
2013-06-12 10:34:00,51.8,40.0,31.37,North,9,15.0,17.0,65,0.00,,,0.00,485,weatherlink.com 1.10,2013-06-12 16:34:00,
2013-06-12 10:49:00,52.8,40.0,31.38,North,11,11.0,21.0,63,0.00,,,0.00,432,weatherlink.com 1.10,2013-06-12 16:49:00,
2013-06-12 11:04:00,53.0,40.0,31.37,North,5,19.0,19.0,62,0.00,,,0.00,454,weatherlink.com 1.10,2013-06-12 17:04:00,
2013-06-12 11:19:00,53.8,40.0,31.38,NNW,348,14.0,20.0,61,0.00,,,0.00,777,weatherlink.com 1.10,2013-06-12 17:19:00,
2013-06-12 11:34:00,54.2,40.0,31.38,NNE,32,16.0,21.0,60,0.00,,,0.00,784,weatherlink.com 1.10,2013-06-12 17:34:00,
2013-06-12 11:49:00,54.4,41.0,31.38,North,5,10.0,23.0,60,0.00,,,0.00,860,weatherlink.com 1.10,2013-06-12 17:49:00,
2013-06-12 12:04:00,54.5,41.0,31.38,NNE,12,17.0,23.0,61,0.00,,,0.00,844,weatherlink.com 1.10,2013-06-12 18:04:00,
2013-06-12 12:19:00,55.5,42.0,31.38,NNE,25,12.0,21.0,61,0.00,,,0.00,853,weatherlink.com 1.10,2013-06-12 18:19:00,
2013-06-12 12:34:00,55.8,42.0,31.38,North,9,11.0,24.0,60,0.00,,,0.00,865,weatherlink.com 1.10,2013-06-12 18:34:00,
2013-06-12 12:49:00,55.5,42.0,31.37,North,355,19.0,25.0,60,0.00,,,0.00,875,weatherlink.com 1.10,2013-06-12 18:49:00,
2013-06-12 13:04:00,56.1,41.0,31.37,NNE,12,13.0,22.0,58,0.00,,,0.00,884,weatherlink.com 1.10,2013-06-12 19:04:00,
2013-06-12 13:19:00,57.4,43.0,31.36,North,5,16.0,20.0,58,0.00,,,0.00,898,weatherlink.com 1.10,2013-06-12 19:19:00,
2013-06-12 13:34:00,57.7,42.0,31.36,North,350,12.0,20.0,57,0.00,,,0.00,902,weatherlink.com 1.10,2013-06-12 19:34:00,
2013-06-12 13:49:00,58.2,42.0,31.35,NNE,24,6.0,21.0,55,0.00,,,0.00,907,weatherlink.com 1.10,2013-06-12 19:49:00,
2013-06-12 14:04:00,59.1,43.0,31.35,NE,36,11.0,21.0,56,0.00,,,0.00,909,weatherlink.com 1.10,2013-06-12 20:04:00,
2013-06-12 14:19:00,59.4,42.0,31.34,North,10,8.0,21.0,53,0.00,,,0.00,905,weatherlink.com 1.10,2013-06-12 20:19:00,
2013-06-12 14:34:00,61.2,43.0,31.34,NNE,17,17.0,18.0,51,0.00,,,0.00,904,weatherlink.com 1.10,2013-06-12 20:34:00,
2013-06-12 14:49:00,61.7,43.0,31.34,NNE,20,14.0,18.0,50,0.00,,,0.00,895,weatherlink.com 1.10,2013-06-12 20:49:00,
2013-06-12 15:04:00,62.6,43.0,31.33,NNE,17,7.0,18.0,49,0.00,,,0.00,886,weatherlink.com 1.10,2013-06-12 21:04:00,
2013-06-12 15:19:00,63.1,42.0,31.32,North,9,11.0,19.0,47,0.00,,,0.00,870,weatherlink.com 1.10,2013-06-12 21:19:00,
2013-06-12 15:34:00,63.3,44.0,31.32,NNE,13,10.0,19.0,49,0.00,,,0.00,854,weatherlink.com 1.10,2013-06-12 21:34:00,
2013-06-12 15:49:00,64.0,43.0,31.32,NNE,18,7.0,19.0,47,0.00,,,0.00,835,weatherlink.com 1.10,2013-06-12 21:49:00,
2013-06-12 16:04:00,63.6,42.0,31.31,NNE,15,11.0,19.0,46,0.00,,,0.00,814,weatherlink.com 1.10,2013-06-12 22:04:00,
2013-06-12 16:19:00,63.8,43.0,31.31,NNW,346,10.0,20.0,47,0.00,,,0.00,791,weatherlink.com 1.10,2013-06-12 22:19:00,
2013-06-12 16:34:00,64.8,43.0,31.31,NNW,348,7.0,18.0,46,0.00,,,0.00,765,weatherlink.com 1.10,2013-06-12 22:34:00,
2013-06-12 16:49:00,64.1,42.0,31.31,North,355,7.0,21.0,45,0.00,,,0.00,738,weatherlink.com 1.10,2013-06-12 22:49:00,
2013-06-12 17:04:00,64.6,43.0,31.31,North,9,14.0,21.0,45,0.00,,,0.00,703,weatherlink.com 1.10,2013-06-12 23:04:00,
2013-06-12 17:19:00,64.6,43.0,31.31,North,5,13.0,21.0,45,0.00,,,0.00,693,weatherlink.com 1.10,2013-06-12 23:19:00,
2013-06-12 17:34:00,-999.0,-99.9,31.31,North,-999,-999.0,-999.0,-999,0.00,,,0.00,,weatherlink.com 1.10,2013-06-12 23:34:00,
2013-06-12 17:49:00,-999.0,-99.9,31.31,North,-999,-999.0,-999.0,-999,0.00,,,0.00,,weatherlink.com 1.10,2013-06-12 23:49:00,
2013-06-12 18:05:00,-999.0,-99.9,31.32,North,-999,-999.0,-999.0,-999,0.00,,,0.00,,weatherlink.com 1.10,2013-06-13 00:05:00,
2013-06-12 18:20:00,-999.0,-99.9,31.32,North,-999,-999.0,-999.0,-999,0.00,,,0.00,,weatherlink.com 1.10,2013-06-13 00:20:00,
2013-06-12 18:35:00,-999.0,-99.9,31.32,North,-999,-999.0,-999.0,-999,0.00,,,0.00,,weatherlink.com 1.10,2013-06-13 00:35:00,
2013-06-12 18:50:00,64.1,43.0,31.33,North,350,8.0,19.0,46,0.00,,,0.00,436,weatherlink.com 1.10,2013-06-13 00:50:00,
2013-06-12 19:05:00,64.0,43.0,31.33,NW,317,15.0,18.0,46,0.00,,,0.00,392,weatherlink.com 1.10,2013-06-13 01:05:00,
2013-06-12 19:20:00,63.6,42.0,31.33,North,355,12.0,16.0,46,0.00,,,0.00,350,weatherlink.com 1.10,2013-06-13 01:20:00,
2013-06-12 19:35:00,63.0,42.0,31.34,NNE,28,8.0,17.0,47,0.00,,,0.00,304,weatherlink.com 1.10,2013-06-13 01:35:00,
2013-06-12 19:50:00,62.8,42.0,31.34,North,5,9.0,18.0,47,0.00,,,0.00,258,weatherlink.com 1.10,2013-06-13 01:50:00,
2013-06-12 20:05:00,62.5,42.0,31.34,NNE,13,7.0,19.0,48,0.00,,,0.00,214,weatherlink.com 1.10,2013-06-13 02:05:00,
2013-06-12 20:20:00,62.2,42.0,31.35,North,360,6.0,15.0,47,0.00,,,0.00,163,weatherlink.com 1.10,2013-06-13 02:20:00,
2013-06-12 20:35:00,61.2,42.0,31.35,North,5,7.0,14.0,49,0.00,,,0.00,109,weatherlink.com 1.10,2013-06-13 02:35:00,
2013-06-12 20:50:00,59.8,41.0,31.35,North,360,5.0,13.0,51,0.00,,,0.00,21,weatherlink.com 1.10,2013-06-13 02:50:00,
2013-06-12 21:05:00,58.0,42.0,31.35,North,355,5.0,8.0,55,0.00,,,0.00,16,weatherlink.com 1.10,2013-06-13 03:05:00,
2013-06-12 21:20:00,57.0,41.0,31.35,NNE,27,5.0,8.0,56,0.00,,,0.00,12,weatherlink.com 1.10,2013-06-13 03:20:00,
2013-06-12 21:35:00,56.8,40.0,31.34,North,10,6.0,11.0,54,0.00,,,0.00,0,weatherlink.com 1.10,2013-06-13 03:35:00,
2013-06-12 21:50:00,56.4,40.0,31.35,North,11,3.0,8.0,54,0.00,,,0.00,0,weatherlink.com 1.10,2013-06-13 03:50:00,
2013-06-12 22:05:00,56.6,39.0,31.36,North,11,4.0,10.0,53,0.00,,,0.00,0,weatherlink.com 1.10,2013-06-13 04:05:00,
2013-06-12 22:20:00,56.4,39.0,31.35,NNE,28,4.0,9.0,52,0.00,,,0.00,0,weatherlink.com 1.10,2013-06-13 04:20:00,
2013-06-12 22:35:00,55.8,39.0,31.38,NNE,17,4.0,9.0,54,0.00,,,0.00,0,weatherlink.com 1.10,2013-06-13 04:35:00,
2013-06-12 22:50:00,56.0,39.0,31.38,NE,34,2.0,6.0,53,0.00,,,0.00,0,weatherlink.com 1.10,2013-06-13 04:50:00,
2013-06-12 23:05:00,56.5,39.0,31.39,NNE,23,2.0,7.0,52,0.00,,,0.00,0,weatherlink.com 1.10,2013-06-13 05:05:00,
2013-06-12 23:20:00,55.9,39.0,31.37,North,5,1.0,5.0,53,0.00,,,0.00,0,weatherlink.com 1.10,2013-06-13 05:20:00,
2013-06-12 23:35:00,55.4,39.0,31.36,North,355,5.0,6.0,54,0.00,,,0.00,0,weatherlink.com 1.10,2013-06-13 05:35:00,
2013-06-12 23:50:00,56.0,39.0,31.35,North,10,9.0,12.0,53,0.00,,,0.00,0,weatherlink.com 1.10,2013-06-13 05:50:00,